Regional Weather Roundup
Issued by NWS Kansas City/Pleasant Hill, MO

Home | Current Version | Previous Version | Graphics & Text | Print | Product List | Glossary Off
Versions: 1 2 3 4 5 6 7 8 9 10 11 12 13 14 15 16 17 18 19 20 21 22 23 24 25 26 27 28 29 30 31 32 33 34 35 36 37 38 39 40 41 42 43 44 45 46 47 48 49 50

000
ASUS43 KEAX 300010
RWREAX

WEATHER ROUNDUP FOR EASTERN KANSAS AND NORTHWEST MISSOURI
NATIONAL WEATHER SERVICE KANSAS CITY/PLEASANT HILL MO
700 PM CDT MON JUN 29 2015

KSZ040-057-103>105-MOZ028-029-037-043-300100-
...KANSAS CITY METROPOLITAN AREA...

CITY           SKY/WX    TMP DP  RH WIND       PRES   REMARKS
K.C. INTL      CLOUDY    82  65  56 NW5       29.90F
6HR MIN TEMP:  82; 6HR MAX TEMP:  86;

K.C. DOWNTOWN  SUNNY     86  63  45 N7        29.88F
6HR MIN TEMP:  85; 6HR MAX TEMP:  88;

LEES SUMMIT    SUNNY     82  64  54 NW5       29.90F
6HR MIN TEMP:  82; 6HR MAX TEMP:  86;

OLATHE - IXD   SUNNY     83  63  50 NW9       29.92S
6HR MIN TEMP:  83; 6HR MAX TEMP:  86;

OLATHE - OJC   PTSUNNY   83  61  47 W7        29.90F
6HR MIN TEMP:  82; 6HR MAX TEMP:  86;

LAWRENCE       SUNNY     84  64  50 NW7       29.90F

$$

MOZ001>008-011>017-020>025-030>033-038>040-044>046-053-054-300100-
...NORTHERN AND CENTRAL MISSOURI...

CITY           SKY/WX    TMP DP  RH WIND       PRES   REMARKS
ST. JOSEPH     SUNNY     84  64  50 NW5       29.89S
6HR MIN TEMP:  84; 6HR MAX TEMP:  88;

MOSBY          CLEAR     82  63  51 CALM      29.88S
HARRISONVILLE  MOSUNNY   84  64  51 NW5       29.92F
WARRENSBURG    SUNNY     81  64  57 W5        29.88F
WHITEMAN AFB   MOSUNNY   83  66  56 W7        29.88S
6HR MIN TEMP:  83; 6HR MAX TEMP:  85;

CLINTON        SUNNY     84  64  51 W5        29.89F
SEDALIA        SUNNY     82  66  58 W7        29.89F
6HR MIN TEMP:  82; 6HR MAX TEMP:  86;

WARSAW         FAIR      82  66  57 CALM      29.90S
CHILLICOTHE      N/A     82  68  62 CALM      29.88S
6HR MIN TEMP:  82; 6HR MAX TEMP:  87;

KIRKSVILLE     SUNNY     78  67  68 NW5       29.88R
6HR MIN TEMP:  78; 6HR MAX TEMP:  85;


$$

MOZ041-047>049-056>058-063>065-088>090-097-300100-
...EASTERN AND SOUTHERN MISSOURI...

CITY           SKY/WX    TMP DP  RH WIND       PRES   REMARKS
ST. LOUIS INTL PTSUNNY   84  66  54 W3        29.85S
6HR MIN TEMP:  81; 6HR MAX TEMP:  85;

SPIRIT OF STL  PTSUNNY   75  70  84 CALM      29.84S
COLUMBIA       SUNNY     81  66  60 W6        29.88S
JEFFERSON CITY SUNNY     84  64  50 NW6       29.86S
MEXICO         MOSUNNY   84  70  61 NW8       29.87R
ROLLA          SUNNY     80  67  64 W6        29.88S
OSAGE BEACH    SUNNY     81  66  61 W5        29.89F
SPRINGFIELD    SUNNY     82  63  52 NW7       29.92F
BRANSON        SUNNY     81  64  57 CALM      29.94S
NEVADA         SUNNY     82  66  57 NW5       29.93S
JOPLIN         SUNNY     84  65  52 N7        29.93S
WEST PLAINS    SUNNY     83  65  54 NW5       29.92S
MALDEN         SUNNY     90  63  40 NW8       29.84S HX  90

$$

IAZ060-094-KSZ022-034>040-054-083-096-NEZ052-066-093-300100-
...KANSAS...SOUTHEAST NEBRASKA AND IOWA...

CITY           SKY/WX    TMP DP  RH WIND       PRES   REMARKS
TOPEKA         SUNNY     85  63  47 NW6       29.91S
6HR MIN TEMP:  85; 6HR MAX TEMP:  88;

MANHATTAN      SUNNY     88  60  38 W5        29.91F
EMPORIA        SUNNY     84  60  44 CALM      29.93F
CHANUTE        SUNNY     86  62  44 N5        29.92F
WICHITA        PTSUNNY   89  55  31 N7        29.93F
OMAHA          CLOUDY    83  63  50 NE6       29.90S
LINCOLN        SUNNY     87  58  37 N8        29.93S HAZE
FALLS CITY     SUNNY     83  65  54 NW5       29.89F
LAMONI         SUNNY     79  67  66 NW6       29.89S
DES MOINES     CLOUDY    80  63  55 NW8       29.86S

$$



USA.gov is the U.S. government's official web portal to all federal, state and local government web resources and services.